Flag for Australia Weather past 2 weeks in Alice Springs, Northern Territory, Australia

Now
95 °F

Sunny.


Feels Like: 91 °F
Forecast: 71 / 97 °F
Wind: 13 mph from Southeast

Location: Alice Springs Aerodrome

Current Time: Jan 31, 2015 at 6:01:44 PM

Latest Report: Jan 31, 2015 at 5:30 PM


Visibility: N/A

Pressure: 29.80 "Hg

Humidity: 14%

Dew point: 39 °F

Location of Alice SpringsLocation

Historic Weather in Alice Springs — Graph

°F

Alice Springs temperature yesterday

Maximum temperature yesterday: 93 °F (at 4:00 PM)
Minimum temperature yesterday: 63 °F (at 3:30 AM)
Average temperature yesterday: 78 °F

Past Weeks' High & Low Weather Summary

 TemperatureHumidityPressure
High106 °F (Jan 20, 1:00 PM)83% (Jan 17, 6:30 AM)30.01 "Hg (Jan 17, 6:30 AM)
Low57 °F (Jan 29, 6:30 AM)8% (Jan 20, 5:30 PM)29.71 "Hg (Jan 23, 4:30 PM)
Average83 °F33%29.86 "Hg
* Reported Jan 16 4:30 PM — Jan 31 4:30 PM, Alice Springs, Weather by CustomWeather, © 2014

Note: Actual official high and low records may vary slightly from our data, if they occured in-between our weather recording intervals... More about our weather records

Advertising

Alice Springs weather history for previous 24 hours

 ConditionsComfort  
Time TempWeatherWind HumidityBarometerVisibility
4:30 PM
Jan 31
95 °FPassing clouds.7 mph14%29.80 "HgN/A
4:00 PM97 °FPassing clouds.10 mph13%29.80 "HgN/A
3:30 PM97 °FSunny.8 mph13%29.83 "Hg10 mi
3:00 PM95 °FPassing clouds.5 mph15%29.83 "HgN/A
2:30 PM95 °FPassing clouds.7 mph15%29.83 "HgN/A
1:30 PM95 °FPassing clouds.10 mph15%29.83 "HgN/A
12:30 PM93 °FPassing clouds.5 mph17%29.86 "HgN/A
12:00 PM91 °FPassing clouds.8 mph20%29.89 "HgN/A
11:30 AM91 °FSunny.8 mph20%29.89 "Hg10 mi
11:00 AM91 °FSunny.9 mph20%29.89 "HgN/A
10:30 AM90 °FSunny.14 mph21%29.89 "Hg10 mi
9:30 AM88 °FSunny.9 mph25%29.89 "Hg10 mi
9:00 AM86 °FSunny.12 mph27%29.89 "Hg10 mi
8:30 AM82 °FSunny.8 mph30%29.89 "Hg10 mi
8:00 AM79 °FSunny.2 mph37%29.89 "Hg10 mi
7:30 AM75 °FSunny.No wind41%29.89 "Hg10 mi
6:30 AM66 °FSunny.2 mph64%29.86 "Hg10 mi
6:00 AM64 °FSunny.2 mph68%29.86 "Hg10 mi
5:30 AM66 °FClear.No wind68%29.86 "HgN/A
5:00 AM66 °FClear.No wind68%29.86 "HgN/A
4:30 AM66 °FClear.No wind68%29.83 "HgN/A
4:00 AM66 °FClear.No wind68%29.83 "HgN/A
3:30 AM68 °FClear.5 mph60%29.83 "HgN/A
3:00 AM68 °FClear.No wind56%29.83 "HgN/A
2:30 AM68 °FClear.3 mph60%29.83 "HgN/A
2:00 AM70 °FClear.5 mph53%29.83 "HgN/A
1:30 AM72 °FClear.6 mph44%29.83 "HgN/A
12:30 AM70 °FClear.5 mph57%29.86 "HgN/A
11:30 PM
Jan 30
73 °FClear.5 mph47%29.86 "HgN/A
11:00 PM73 °FClear.No wind50%29.86 "HgN/A
10:30 PM77 °FClear.1 mph39%29.86 "HgN/A
10:00 PM77 °FClear.3 mph39%29.86 "HgN/A
9:30 PM79 °FClear.6 mph39%29.83 "HgN/A
9:00 PM82 °FClear.6 mph28%29.83 "HgN/A
8:30 PM82 °FClear.7 mph28%29.83 "HgN/A
8:00 PM84 °FClear.7 mph27%29.83 "HgN/A
7:30 PM84 °FClear.7 mph29%29.80 "HgN/A
7:00 PM90 °FClear.8 mph20%29.80 "HgN/A
6:30 PM90 °FSunny.8 mph20%29.80 "HgN/A
Weather by CustomWeather, © 2014

See weather overviewHow to use our weather pages